Time,TemperatureF,DewpointF,PressureIn,WindDirection,WindDirectionDegrees,WindSpeedMPH,WindSpeedGustMPH,Humidity,HourlyPrecipIn,Conditions,Clouds,dailyrainin,SoftwareType,DateUTC
2013-03-18 00:00:00,30.4,18.6,30.21,NNE,27,0.0,0.0,61,0.00,,CLR,0.00,VWS V14.01,2013-03-18 04:00:00,
2013-03-18 00:05:00,30.1,17.5,30.21,NNE,27,0.0,1.0,59,0.00,,CLR,0.00,VWS V14.01,2013-03-18 04:05:00,
2013-03-18 00:10:00,30.0,17.8,30.21,NNE,27,0.0,0.0,60,0.00,,CLR,0.00,VWS V14.01,2013-03-18 04:10:00,
2013-03-18 00:15:00,29.8,17.6,30.21,NNE,27,0.0,0.0,60,0.00,,CLR,0.00,VWS V14.01,2013-03-18 04:15:00,
2013-03-18 00:20:00,29.7,17.5,30.21,NNE,27,0.0,0.0,60,0.00,,CLR,0.00,VWS V14.01,2013-03-18 04:20:00,
2013-03-18 00:25:00,29.5,17.3,30.21,NNE,27,0.0,0.0,60,0.00,,CLR,0.00,VWS V14.01,2013-03-18 04:25:00,
2013-03-18 00:30:00,29.5,17.3,30.21,NNE,27,0.0,0.0,60,0.00,,CLR,0.00,VWS V14.01,2013-03-18 04:30:00,
2013-03-18 00:35:00,29.4,16.9,30.21,NNE,27,0.0,1.0,59,0.00,,CLR,0.00,VWS V14.01,2013-03-18 04:35:00,
2013-03-18 00:40:00,29.4,16.9,30.21,NNE,27,0.0,2.0,59,0.00,,CLR,0.00,VWS V14.01,2013-03-18 04:40:00,
2013-03-18 00:45:00,29.4,16.9,30.21,NNE,27,0.0,1.0,59,0.00,,CLR,0.00,VWS V14.01,2013-03-18 04:45:00,
2013-03-18 00:50:00,29.5,16.6,30.21,NNE,28,1.0,4.0,58,0.00,,CLR,0.00,VWS V14.01,2013-03-18 04:50:00,
2013-03-18 00:55:00,29.5,16.6,30.21,NNE,28,0.0,1.0,58,0.00,,CLR,0.00,VWS V14.01,2013-03-18 04:55:00,
2013-03-18 01:00:00,29.7,16.4,30.21,NE,48,0.0,1.0,57,0.00,,CLR,0.00,VWS V14.01,2013-03-18 05:00:00,
2013-03-18 01:05:00,29.7,16.4,30.21,NE,50,0.0,3.0,57,0.00,,CLR,0.00,VWS V14.01,2013-03-18 05:05:00,
2013-03-18 01:10:00,29.5,16.2,30.21,NE,50,0.0,2.0,57,0.00,,CLR,0.00,VWS V14.01,2013-03-18 05:10:00,
2013-03-18 01:15:00,29.5,16.2,30.21,ENE,76,0.0,4.0,57,0.00,,CLR,0.00,VWS V14.01,2013-03-18 05:15:00,
2013-03-18 01:20:00,29.5,16.2,30.21,NNE,32,5.0,5.0,57,0.00,,CLR,0.00,VWS V14.01,2013-03-18 05:20:00,
2013-03-18 01:25:00,29.7,16.4,30.21,NE,46,0.0,5.0,57,0.00,,CLR,0.00,VWS V14.01,2013-03-18 05:25:00,
2013-03-18 01:30:00,29.5,16.2,30.21,ENE,61,4.0,7.0,57,0.00,,CLR,0.00,VWS V14.01,2013-03-18 05:30:00,
2013-03-18 01:35:00,29.5,16.2,30.21,NE,49,0.0,1.0,57,0.00,,CLR,0.00,VWS V14.01,2013-03-18 05:35:00,
2013-03-18 01:40:00,29.4,16.1,30.21,NE,49,0.0,1.0,57,0.00,,CLR,0.00,VWS V14.01,2013-03-18 05:40:00,
2013-03-18 01:45:00,29.1,16.2,30.21,NE,49,0.0,0.0,58,0.00,,CLR,0.00,VWS V14.01,2013-03-18 05:45:00,
2013-03-18 01:50:00,29.0,16.1,30.22,ENE,75,0.0,2.0,58,0.00,,CLR,0.00,VWS V14.01,2013-03-18 05:50:00,
2013-03-18 01:55:00,28.8,15.9,30.22,ENE,75,0.0,1.0,58,0.00,,CLR,0.00,VWS V14.01,2013-03-18 05:55:00,
2013-03-18 02:00:00,28.7,16.2,30.22,ENE,75,0.0,2.0,59,0.00,,CLR,0.00,VWS V14.01,2013-03-18 06:00:00,
2013-03-18 02:05:00,28.4,15.9,30.22,ENE,74,0.0,2.0,59,0.00,,CLR,0.00,VWS V14.01,2013-03-18 06:05:00,
2013-03-18 02:10:00,28.1,15.6,30.22,ENE,74,0.0,1.0,59,0.00,,CLR,0.00,VWS V14.01,2013-03-18 06:10:00,
2013-03-18 02:15:00,27.9,15.4,30.22,ENE,74,0.0,0.0,59,0.00,,CLR,0.00,VWS V14.01,2013-03-18 06:15:00,
2013-03-18 02:20:00,27.8,15.4,30.23,ENE,74,0.0,1.0,59,0.00,,CLR,0.00,VWS V14.01,2013-03-18 06:20:00,
2013-03-18 02:25:00,27.8,15.4,30.23,ENE,60,0.0,2.0,59,0.00,,CLR,0.00,VWS V14.01,2013-03-18 06:25:00,
2013-03-18 02:31:00,27.6,15.2,30.23,ENE,60,0.0,1.0,59,0.00,,CLR,0.00,VWS V14.01,2013-03-18 06:31:00,
2013-03-18 02:36:00,27.5,15.1,30.23,ENE,60,0.0,0.0,59,0.00,,CLR,0.00,VWS V14.01,2013-03-18 06:36:00,
2013-03-18 02:41:00,27.5,15.1,30.23,ENE,60,0.0,0.0,59,0.00,,CLR,0.00,VWS V14.01,2013-03-18 06:41:00,
2013-03-18 02:46:00,27.3,14.9,30.23,ENE,60,0.0,0.0,59,0.00,,CLR,0.00,VWS V14.01,2013-03-18 06:46:00,
2013-03-18 02:51:00,27.2,15.2,30.24,ENE,60,0.0,0.0,60,0.00,,CLR,0.00,VWS V14.01,2013-03-18 06:51:00,
2013-03-18 02:56:00,27.0,15.4,30.24,ENE,60,0.0,0.0,61,0.00,,CLR,0.00,VWS V14.01,2013-03-18 06:56:00,
2013-03-18 03:01:00,26.7,15.4,30.24,ENE,60,0.0,0.0,62,0.00,,CLR,0.00,VWS V14.01,2013-03-18 07:01:00,
2013-03-18 03:06:00,26.7,15.8,30.24,ENE,60,0.0,0.0,63,0.00,,CLR,0.00,VWS V14.01,2013-03-18 07:06:00,
2013-03-18 03:11:00,26.6,15.7,30.24,ENE,60,0.0,0.0,63,0.00,,CLR,0.00,VWS V14.01,2013-03-18 07:11:00,
2013-03-18 03:16:00,26.4,15.5,30.24,ENE,60,0.0,0.0,63,0.00,,CLR,0.00,VWS V14.01,2013-03-18 07:16:00,
2013-03-18 03:21:00,26.3,15.8,30.25,ENE,60,0.0,0.0,64,0.00,,CLR,0.00,VWS V14.01,2013-03-18 07:21:00,
2013-03-18 03:26:00,26.3,15.4,30.25,ENE,60,0.0,0.0,63,0.00,,CLR,0.00,VWS V14.01,2013-03-18 07:26:00,
2013-03-18 03:31:00,26.1,15.6,30.25,ENE,60,0.0,0.0,64,0.00,,CLR,0.00,VWS V14.01,2013-03-18 07:31:00,
2013-03-18 03:36:00,26.1,15.2,30.25,ENE,60,0.0,1.0,63,0.00,,CLR,0.00,VWS V14.01,2013-03-18 07:36:00,
2013-03-18 03:41:00,26.1,15.2,30.25,ENE,60,0.0,2.0,63,0.00,,CLR,0.00,VWS V14.01,2013-03-18 07:41:00,
2013-03-18 03:46:00,26.1,14.9,30.25,ENE,60,0.0,2.0,62,0.00,,CLR,0.00,VWS V14.01,2013-03-18 07:46:00,
2013-03-18 03:51:00,26.1,15.2,30.24,ENE,60,1.0,1.0,63,0.00,,CLR,0.00,VWS V14.01,2013-03-18 07:51:00,
2013-03-18 03:56:00,26.3,15.1,30.24,ENE,60,0.0,1.0,62,0.00,,CLR,0.00,VWS V14.01,2013-03-18 07:56:00,
2013-03-18 04:01:00,26.4,15.5,30.24,ENE,60,0.0,0.0,63,0.00,,CLR,0.00,VWS V14.01,2013-03-18 08:01:00,
2013-03-18 04:06:00,26.6,15.7,30.25,ENE,60,0.0,0.0,63,0.00,,CLR,0.00,VWS V14.01,2013-03-18 08:06:00,
2013-03-18 04:11:00,26.6,15.7,30.25,ENE,60,0.0,1.0,63,0.00,,CLR,0.00,VWS V14.01,2013-03-18 08:11:00,
2013-03-18 04:16:00,26.7,15.4,30.25,ENE,60,0.0,0.0,62,0.00,,CLR,0.00,VWS V14.01,2013-03-18 08:16:00,
2013-03-18 04:21:00,26.9,15.3,30.25,ENE,60,0.0,1.0,61,0.00,,CLR,0.00,VWS V14.01,2013-03-18 08:21:00,
2013-03-18 04:26:00,26.9,15.6,30.25,ENE,60,0.0,1.0,62,0.00,,CLR,0.00,VWS V14.01,2013-03-18 08:26:00,
2013-03-18 04:31:00,27.0,15.4,30.25,ENE,74,0.0,4.0,61,0.00,,CLR,0.00,VWS V14.01,2013-03-18 08:31:00,
2013-03-18 04:36:00,27.0,15.4,30.25,ENE,74,0.0,1.0,61,0.00,,CLR,0.00,VWS V14.01,2013-03-18 08:36:00,
2013-03-18 04:41:00,27.0,15.0,30.25,ENE,72,4.0,4.0,60,0.00,,CLR,0.00,VWS V14.01,2013-03-18 08:41:00,
2013-03-18 04:46:00,27.2,14.0,30.25,NE,39,0.0,5.0,57,0.00,,CLR,0.00,VWS V14.01,2013-03-18 08:46:00,
2013-03-18 04:52:00,27.3,14.5,30.25,East,86,0.0,5.0,58,0.00,,CLR,0.00,VWS V14.01,2013-03-18 08:52:00,
2013-03-18 04:57:00,27.5,13.9,30.25,ENE,65,1.0,4.0,56,0.00,,CLR,0.00,VWS V14.01,2013-03-18 08:57:00,
2013-03-18 05:02:00,27.6,14.4,30.25,East,83,0.0,5.0,57,0.00,,CLR,0.00,VWS V14.01,2013-03-18 09:02:00,
2013-03-18 05:07:00,27.8,13.8,30.25,NE,48,0.0,0.0,55,0.00,,CLR,0.00,VWS V14.01,2013-03-18 09:07:00,
2013-03-18 05:12:00,27.9,14.2,30.25,East,91,1.0,5.0,56,0.00,,CLR,0.00,VWS V14.01,2013-03-18 09:12:00,
2013-03-18 05:17:00,27.9,14.2,30.26,East,89,1.0,4.0,56,0.00,,CLR,0.00,VWS V14.01,2013-03-18 09:17:00,
2013-03-18 05:22:00,28.1,14.4,30.26,East,83,5.0,5.0,56,0.00,,CLR,0.00,VWS V14.01,2013-03-18 09:22:00,
2013-03-18 05:27:00,27.9,14.6,30.26,ESE,107,0.0,2.0,57,0.00,,CLR,0.00,VWS V14.01,2013-03-18 09:27:00,
2013-03-18 05:32:00,27.9,14.6,30.25,East,101,4.0,4.0,57,0.00,,CLR,0.00,VWS V14.01,2013-03-18 09:32:00,
2013-03-18 05:37:00,27.9,14.6,30.25,East,91,0.0,2.0,57,0.00,,CLR,0.00,VWS V14.01,2013-03-18 09:37:00,
2013-03-18 05:42:00,27.9,14.6,30.25,East,101,1.0,2.0,57,0.00,,CLR,0.00,VWS V14.01,2013-03-18 09:42:00,
2013-03-18 05:47:00,27.9,14.6,30.26,East,92,1.0,2.0,57,0.00,,CLR,0.00,VWS V14.01,2013-03-18 09:47:00,
2013-03-18 05:52:00,27.9,14.2,30.26,East,82,0.0,0.0,56,0.00,,CLR,0.00,VWS V14.01,2013-03-18 09:52:00,
2013-03-18 05:57:00,27.9,14.6,30.26,East,86,0.0,2.0,57,0.00,,CLR,0.00,VWS V14.01,2013-03-18 09:57:00,
2013-03-18 06:02:00,27.9,14.6,30.27,NE,41,4.0,4.0,57,0.00,,CLR,0.00,VWS V14.01,2013-03-18 10:02:00,
2013-03-18 06:07:00,27.9,14.2,30.27,ESE,115,2.0,6.0,56,0.00,,CLR,0.00,VWS V14.01,2013-03-18 10:07:00,
2013-03-18 06:12:00,27.9,13.8,30.27,ENE,68,1.0,8.0,55,0.00,,CLR,0.00,VWS V14.01,2013-03-18 10:12:00,
2013-03-18 06:17:00,27.9,13.8,30.27,ESE,110,0.0,4.0,55,0.00,,CLR,0.00,VWS V14.01,2013-03-18 10:17:00,
2013-03-18 06:22:00,27.9,14.2,30.27,ENE,61,3.0,3.0,56,0.00,,CLR,0.00,VWS V14.01,2013-03-18 10:22:00,
2013-03-18 06:28:00,27.8,13.8,30.27,East,86,0.0,0.0,55,0.00,,CLR,0.00,VWS V14.01,2013-03-18 10:28:00,
2013-03-18 06:33:00,27.8,12.9,30.27,ENE,71,3.0,8.0,53,0.00,,CLR,0.00,VWS V14.01,2013-03-18 10:33:00,
2013-03-18 06:38:00,27.8,12.9,30.27,East,82,1.0,2.0,53,0.00,,CLR,0.00,VWS V14.01,2013-03-18 10:38:00,
2013-03-18 06:42:00,27.8,12.0,30.27,East,92,1.0,7.0,51,0.00,,CLR,0.00,VWS V14.01,2013-03-18 10:42:00,
2013-03-18 06:47:00,27.9,12.1,30.28,ENE,63,5.0,5.0,51,0.00,,CLR,0.00,VWS V14.01,2013-03-18 10:47:00,
2013-03-18 06:52:00,27.9,12.1,30.28,ENE,77,1.0,6.0,51,0.00,,CLR,0.00,VWS V14.01,2013-03-18 10:52:00,
2013-03-18 06:57:00,27.9,11.7,30.28,ENE,75,6.0,9.0,50,0.00,,CLR,0.00,VWS V14.01,2013-03-18 10:57:00,
2013-03-18 07:03:00,27.9,11.7,30.27,East,85,1.0,3.0,50,0.00,,CLR,0.00,VWS V14.01,2013-03-18 11:03:00,
2013-03-18 07:08:00,27.9,11.7,30.27,East,96,2.0,9.0,50,0.00,,CLR,0.00,VWS V14.01,2013-03-18 11:08:00,
2013-03-18 07:13:00,27.8,11.6,30.27,ESE,110,3.0,6.0,50,0.00,,CLR,0.00,VWS V14.01,2013-03-18 11:13:00,
2013-03-18 07:18:00,27.8,10.7,30.28,ENE,76,4.0,9.0,48,0.00,,CLR,0.00,VWS V14.01,2013-03-18 11:18:00,
2013-03-18 07:23:00,27.8,11.6,30.28,East,79,1.0,5.0,50,0.00,,CLR,0.00,VWS V14.01,2013-03-18 11:23:00,
2013-03-18 07:28:00,27.8,11.6,30.28,ESE,113,5.0,5.0,50,0.00,,CLR,0.00,VWS V14.01,2013-03-18 11:28:00,
2013-03-18 07:33:00,27.8,11.1,30.27,East,94,5.0,6.0,49,0.00,,CLR,0.00,VWS V14.01,2013-03-18 11:33:00,
2013-03-18 07:38:00,27.8,11.6,30.27,East,86,2.0,2.0,50,0.00,,FEW120,0.00,VWS V14.01,2013-03-18 11:38:00,
2013-03-18 07:43:00,27.8,11.1,30.27,East,82,0.0,8.0,49,0.00,,FEW120,0.00,VWS V14.01,2013-03-18 11:43:00,
2013-03-18 07:48:00,27.8,11.6,30.27,East,98,2.0,5.0,50,0.00,,FEW120,0.00,VWS V14.01,2013-03-18 11:48:00,
2013-03-18 07:53:00,27.8,12.0,30.27,SE,125,5.0,5.0,51,0.00,,FEW120,0.00,VWS V14.01,2013-03-18 11:53:00,
2013-03-18 07:58:00,27.8,11.6,30.27,East,99,0.0,3.0,50,0.00,,FEW120,0.00,VWS V14.01,2013-03-18 11:58:00,
2013-03-18 08:03:00,27.9,12.1,30.27,ENE,69,1.0,6.0,51,0.00,,FEW120,0.00,VWS V14.01,2013-03-18 12:03:00,
2013-03-18 08:08:00,27.9,11.2,30.27,ENE,63,6.0,6.0,49,0.00,,FEW120,0.00,VWS V14.01,2013-03-18 12:08:00,
2013-03-18 08:13:00,27.9,12.6,30.27,East,79,0.0,1.0,52,0.00,,FEW120,0.00,VWS V14.01,2013-03-18 12:13:00,
2013-03-18 08:18:00,28.1,12.8,30.28,NNE,18,0.0,4.0,52,0.00,,CLR,0.00,VWS V14.01,2013-03-18 12:18:00,
2013-03-18 08:23:00,28.1,11.4,30.28,East,87,2.0,5.0,49,0.00,,CLR,0.00,VWS V14.01,2013-03-18 12:23:00,
2013-03-18 08:28:00,28.2,12.0,30.28,ESE,103,2.0,2.0,50,0.00,,FEW120,0.00,VWS V14.01,2013-03-18 12:28:00,
2013-03-18 08:33:00,28.2,12.0,30.27,East,85,5.0,5.0,50,0.00,,FEW120,0.00,VWS V14.01,2013-03-18 12:33:00,
2013-03-18 08:38:00,28.4,11.7,30.27,NE,44,2.0,6.0,49,0.00,,BKN110,0.00,VWS V14.01,2013-03-18 12:38:00,
2013-03-18 08:43:00,28.4,11.7,30.27,ESE,105,2.0,6.0,49,0.00,,BKN110,0.00,VWS V14.01,2013-03-18 12:43:00,
2013-03-18 08:48:00,28.4,11.2,30.27,East,90,4.0,6.0,48,0.00,,BKN110,0.00,VWS V14.01,2013-03-18 12:48:00,
2013-03-18 08:53:00,28.4,11.7,30.27,ESE,113,2.0,11.0,49,0.00,,OVC110,0.00,VWS V14.01,2013-03-18 12:53:00,
2013-03-18 08:58:00,28.5,11.8,30.27,ENE,75,5.0,7.0,49,0.00,,OVC110,0.00,VWS V14.01,2013-03-18 12:58:00,
2013-03-18 09:03:00,28.5,12.7,30.27,East,89,1.0,6.0,51,0.00,,OVC110,0.00,VWS V14.01,2013-03-18 13:03:00,
2013-03-18 09:08:00,28.5,12.7,30.27,SE,125,7.0,8.0,51,0.00,,OVC110,0.00,VWS V14.01,2013-03-18 13:08:00,
2013-03-18 09:13:00,28.7,13.3,30.27,East,89,0.0,6.0,52,0.00,,OVC110,0.00,VWS V14.01,2013-03-18 13:13:00,
2013-03-18 09:18:00,28.7,12.9,30.27,ESE,107,5.0,5.0,51,0.00,,OVC110,0.00,VWS V14.01,2013-03-18 13:18:00,
2013-03-18 09:23:00,28.7,12.4,30.27,ESE,113,2.0,7.0,50,0.00,,OVC110,0.00,VWS V14.01,2013-03-18 13:23:00,
2013-03-18 09:28:00,28.8,12.5,30.27,ESE,110,5.0,11.0,50,0.00,,OVC110,0.00,VWS V14.01,2013-03-18 13:28:00,
2013-03-18 09:33:00,28.8,12.5,30.28,ESE,104,2.0,4.0,50,0.00,,OVC110,0.00,VWS V14.01,2013-03-18 13:33:00,
2013-03-18 09:38:00,29.0,13.6,30.28,SE,124,4.0,5.0,52,0.00,,OVC100,0.00,VWS V14.01,2013-03-18 13:38:00,
2013-03-18 09:43:00,29.1,13.2,30.28,ESE,109,7.0,10.0,51,0.00,,OVC100,0.00,VWS V14.01,2013-03-18 13:43:00,
2013-03-18 09:49:00,29.3,13.4,30.28,SE,124,7.0,11.0,51,0.00,,OVC100,0.00,VWS V14.01,2013-03-18 13:49:00,
2013-03-18 09:54:00,29.3,13.4,30.28,East,101,4.0,9.0,51,0.00,,OVC100,0.00,VWS V14.01,2013-03-18 13:54:00,
2013-03-18 09:59:00,29.4,14.0,30.28,East,87,5.0,12.0,52,0.00,,SCT100,0.00,VWS V14.01,2013-03-18 13:59:00,
2013-03-18 10:04:00,29.4,13.5,30.27,ESE,102,7.0,12.0,51,0.00,,SCT100,0.00,VWS V14.01,2013-03-18 14:04:00,
2013-03-18 10:09:00,29.5,13.6,30.27,SE,129,5.0,11.0,51,0.00,,SCT100,0.00,VWS V14.01,2013-03-18 14:09:00,
2013-03-18 10:14:00,29.8,14.3,30.27,ESE,110,7.0,9.0,52,0.00,,SCT100,0.00,VWS V14.01,2013-03-18 14:14:00,
2013-03-18 10:19:00,29.8,14.8,30.27,SE,127,3.0,6.0,53,0.00,,SCT100,0.00,VWS V14.01,2013-03-18 14:19:00,
2013-03-18 10:24:00,30.1,15.5,30.27,SE,124,5.0,7.0,54,0.00,,SCT100,0.00,VWS V14.01,2013-03-18 14:24:00,
2013-03-18 10:29:00,30.1,15.1,30.27,SE,137,7.0,8.0,53,0.00,,SCT100,0.00,VWS V14.01,2013-03-18 14:29:00,
2013-03-18 10:34:00,30.3,15.2,30.26,ESE,110,8.0,8.0,53,0.00,,SCT100,0.00,VWS V14.01,2013-03-18 14:34:00,
2013-03-18 10:39:00,30.4,15.8,30.26,ESE,102,1.0,8.0,54,0.00,,CLR,0.00,VWS V14.01,2013-03-18 14:39:00,
2013-03-18 10:44:00,30.9,16.2,30.26,ESE,107,5.0,7.0,54,0.00,,CLR,0.00,VWS V14.01,2013-03-18 14:44:00,
2013-03-18 10:49:00,31.3,16.6,30.26,SE,140,7.0,8.0,54,0.00,,CLR,0.00,VWS V14.01,2013-03-18 14:49:00,
2013-03-18 10:54:00,31.6,16.9,30.26,ESE,119,7.0,8.0,54,0.00,,CLR,0.00,VWS V14.01,2013-03-18 14:54:00,
2013-03-18 10:59:00,31.9,17.6,30.26,ESE,111,4.0,6.0,55,0.00,,FEW080,0.00,VWS V14.01,2013-03-18 14:59:00,
2013-03-18 11:04:00,32.4,18.5,30.25,ESE,106,5.0,7.0,56,0.00,,FEW080,0.00,VWS V14.01,2013-03-18 15:04:00,
2013-03-18 11:09:00,32.7,18.8,30.25,ESE,117,0.0,7.0,56,0.00,,FEW080,0.00,VWS V14.01,2013-03-18 15:09:00,
2013-03-18 11:14:00,32.9,19.4,30.25,SE,126,5.0,14.0,57,0.00,,FEW080,0.00,VWS V14.01,2013-03-18 15:14:00,
2013-03-18 11:19:00,33.4,20.2,30.24,NE,34,0.0,8.0,58,0.00,,FEW080,0.00,VWS V14.01,2013-03-18 15:19:00,
2013-03-18 11:24:00,34.0,20.8,30.24,ESE,110,2.0,8.0,58,0.00,,FEW080,0.00,VWS V14.01,2013-03-18 15:24:00,
2013-03-18 11:29:00,34.3,20.7,30.24,East,88,2.0,7.0,57,0.00,,FEW080,0.00,VWS V14.01,2013-03-18 15:29:00,
2013-03-18 11:34:00,34.3,20.7,30.24,ESE,117,7.0,11.0,57,0.00,,FEW080,0.00,VWS V14.01,2013-03-18 15:34:00,
2013-03-18 11:39:00,34.1,20.5,30.24,ESE,114,9.0,10.0,57,0.00,,SCT090,0.00,VWS V14.01,2013-03-18 15:39:00,
2013-03-18 11:44:00,34.1,21.3,30.24,ESE,105,9.0,9.0,59,0.00,,SCT090,0.00,VWS V14.01,2013-03-18 15:44:00,
2013-03-18 11:49:00,34.1,20.5,30.23,SE,130,7.0,13.0,57,0.00,,SCT090,0.00,VWS V14.01,2013-03-18 15:49:00,
2013-03-18 11:54:00,34.1,21.3,30.23,ESE,104,11.0,12.0,59,0.00,,SCT090,0.00,VWS V14.01,2013-03-18 15:54:00,
2013-03-18 11:59:00,34.4,21.2,30.23,ESE,110,8.0,8.0,58,0.00,,CLR,0.00,VWS V14.01,2013-03-18 15:59:00,
2013-03-18 12:04:00,34.7,21.0,30.22,SE,127,5.0,15.0,57,0.00,,CLR,0.00,VWS V14.01,2013-03-18 16:04:00,
2013-03-18 12:09:00,34.9,22.0,30.22,ENE,71,4.0,7.0,59,0.00,,SCT090,0.00,VWS V14.01,2013-03-18 16:09:00,
2013-03-18 12:14:00,35.2,22.3,30.22,East,93,5.0,9.0,59,0.00,,SCT090,0.00,VWS V14.01,2013-03-18 16:14:00,
2013-03-18 12:19:00,35.0,21.7,30.21,ESE,115,8.0,14.0,58,0.00,,CLR,0.00,VWS V14.01,2013-03-18 16:19:00,
2013-03-18 12:24:00,34.9,21.6,30.21,SE,127,5.0,10.0,58,0.00,,CLR,0.00,VWS V14.01,2013-03-18 16:24:00,
2013-03-18 12:29:00,34.9,21.6,30.21,East,101,6.0,12.0,58,0.00,,CLR,0.00,VWS V14.01,2013-03-18 16:29:00,
2013-03-18 12:34:00,35.0,22.1,30.20,ENE,65,12.0,13.0,59,0.00,,CLR,0.00,VWS V14.01,2013-03-18 16:34:00,
2013-03-18 12:39:00,35.0,21.7,30.20,ESE,110,3.0,14.0,58,0.00,,FEW070,0.00,VWS V14.01,2013-03-18 16:39:00,
2013-03-18 12:44:00,35.2,22.3,30.20,ESE,120,5.0,7.0,59,0.00,,FEW070,0.00,VWS V14.01,2013-03-18 16:44:00,
2013-03-18 12:49:00,35.5,22.6,30.20,ENE,58,5.0,13.0,59,0.00,,FEW070,0.00,VWS V14.01,2013-03-18 16:49:00,
2013-03-18 12:54:00,35.6,22.7,30.20,ESE,102,4.0,10.0,59,0.00,,FEW070,0.00,VWS V14.01,2013-03-18 16:54:00,
2013-03-18 12:59:00,35.9,23.0,30.20,ENE,72,5.0,11.0,59,0.00,,BKN070,0.00,VWS V14.01,2013-03-18 16:59:00,
2013-03-18 13:04:00,36.0,23.1,30.18,ESE,122,8.0,13.0,59,0.00,,BKN070,0.00,VWS V14.01,2013-03-18 17:04:00,
2013-03-18 13:09:00,36.2,23.3,30.18,SE,128,8.0,9.0,59,0.00,,BKN070,0.00,VWS V14.01,2013-03-18 17:09:00,
2013-03-18 13:14:00,36.2,23.3,30.18,ESE,110,4.0,14.0,59,0.00,,BKN070,0.00,VWS V14.01,2013-03-18 17:14:00,
2013-03-18 13:19:00,36.3,23.4,30.17,ENE,77,12.0,14.0,59,0.00,,BKN070,0.00,VWS V14.01,2013-03-18 17:19:00,
2013-03-18 13:24:00,36.5,24.0,30.17,East,97,7.0,10.0,60,0.00,,BKN070,0.00,VWS V14.01,2013-03-18 17:24:00,
2013-03-18 13:29:00,36.8,24.2,30.17,ESE,113,6.0,12.0,60,0.00,,BKN070,0.00,VWS V14.01,2013-03-18 17:29:00,
2013-03-18 13:34:00,37.0,24.4,30.16,ESE,112,1.0,9.0,60,0.00,,BKN070,0.00,VWS V14.01,2013-03-18 17:34:00,
2013-03-18 13:39:00,37.3,25.1,30.16,ESE,110,10.0,10.0,61,0.00,,BKN060,0.00,VWS V14.01,2013-03-18 17:39:00,
2013-03-18 13:44:00,37.3,25.5,30.16,ESE,117,2.0,8.0,62,0.00,,BKN060,0.00,VWS V14.01,2013-03-18 17:44:00,
2013-03-18 13:49:00,37.2,25.4,30.15,ESE,115,0.0,7.0,62,0.00,,BKN060,0.00,VWS V14.01,2013-03-18 17:49:00,
2013-03-18 13:54:00,37.3,25.5,30.15,ESE,122,4.0,8.0,62,0.00,,OVC050,0.00,VWS V14.01,2013-03-18 17:54:00,
2013-03-18 13:59:00,37.3,25.9,30.15,ESE,103,8.0,11.0,63,0.00,,OVC050,0.00,VWS V14.01,2013-03-18 17:59:00,
2013-03-18 14:04:00,37.5,26.1,30.13,SE,127,4.0,13.0,63,0.00,,OVC050,0.00,VWS V14.01,2013-03-18 18:04:00,
2013-03-18 14:09:00,37.5,26.1,30.13,ESE,118,6.0,10.0,63,0.00,,OVC070,0.00,VWS V14.01,2013-03-18 18:09:00,
2013-03-18 14:14:00,37.5,26.1,30.13,ESE,110,9.0,13.0,63,0.00,,OVC070,0.00,VWS V14.01,2013-03-18 18:14:00,
2013-03-18 14:19:00,37.6,26.5,30.13,ESE,102,4.0,5.0,64,0.00,,OVC050,0.00,VWS V14.01,2013-03-18 18:19:00,
2013-03-18 14:24:00,37.6,26.5,30.13,East,90,5.0,11.0,64,0.00,,OVC050,0.00,VWS V14.01,2013-03-18 18:24:00,
2013-03-18 14:29:00,37.3,26.3,30.13,ENE,75,4.0,10.0,64,0.00,,OVC050,0.00,VWS V14.01,2013-03-18 18:29:00,
2013-03-18 14:34:00,37.0,26.3,30.11,ESE,115,5.0,10.0,65,0.00,,OVC050,0.00,VWS V14.01,2013-03-18 18:34:00,
2013-03-18 14:39:00,36.9,26.6,30.11,East,88,10.0,11.0,66,0.00,,OVC050,0.00,VWS V14.01,2013-03-18 18:39:00,
2013-03-18 14:44:00,36.9,26.6,30.11,ENE,58,2.0,9.0,66,0.00,,OVC050,0.00,VWS V14.01,2013-03-18 18:44:00,
2013-03-18 14:49:00,36.8,26.9,30.13,ENE,61,1.0,9.0,67,0.00,,OVC050,0.00,VWS V14.01,2013-03-18 18:49:00,
2013-03-18 14:54:00,36.6,27.0,30.13,ESE,105,10.0,14.0,68,0.00,,OVC050,0.00,VWS V14.01,2013-03-18 18:54:00,
2013-03-18 14:59:00,36.5,27.3,30.13,East,98,0.0,9.0,69,0.00,,OVC048,0.00,VWS V14.01,2013-03-18 18:59:00,
2013-03-18 15:04:00,36.3,27.5,30.12,SE,129,8.0,11.0,70,0.00,,OVC048,0.00,VWS V14.01,2013-03-18 19:04:00,
2013-03-18 15:09:00,36.2,28.1,30.12,ESE,117,0.0,8.0,72,0.00,,OVC050,0.00,VWS V14.01,2013-03-18 19:09:00,
2013-03-18 15:14:00,35.9,28.1,30.12,SE,131,7.0,12.0,73,0.00,,OVC048,0.00,VWS V14.01,2013-03-18 19:14:00,
2013-03-18 15:19:00,35.5,28.0,30.12,ESE,108,4.0,10.0,74,0.00,,OVC048,0.00,VWS V14.01,2013-03-18 19:19:00,
2013-03-18 15:24:00,35.2,28.1,30.12,East,96,1.0,7.0,75,0.00,,OVC048,0.00,VWS V14.01,2013-03-18 19:24:00,
2013-03-18 15:29:00,34.9,28.4,30.12,East,86,0.0,7.0,77,0.00,,OVC048,0.00,VWS V14.01,2013-03-18 19:29:00,
2013-03-18 15:34:00,34.6,28.8,30.12,ESE,102,5.0,9.0,79,0.00,,OVC048,0.00,VWS V14.01,2013-03-18 19:34:00,
2013-03-18 15:39:00,34.1,28.6,30.12,SE,134,4.0,9.0,80,0.00,,OVC025,0.00,VWS V14.01,2013-03-18 19:39:00,
2013-03-18 15:44:00,34.0,29.1,30.12,East,97,4.0,6.0,82,0.00,,OVC025,0.00,VWS V14.01,2013-03-18 19:44:00,
2013-03-18 15:49:00,33.8,29.2,30.10,ESE,120,5.0,10.0,83,0.00,,OVC025,0.00,VWS V14.01,2013-03-18 19:49:00,
2013-03-18 15:54:00,33.7,29.4,30.10,East,89,6.0,11.0,84,0.00,,OVC025,0.00,VWS V14.01,2013-03-18 19:54:00,
2013-03-18 15:59:00,33.5,29.5,30.10,SE,125,7.0,13.0,85,0.00,,OVC021,0.00,VWS V14.01,2013-03-18 19:59:00,
2013-03-18 16:04:00,33.4,29.7,30.08,ESE,114,5.0,11.0,86,0.00,,OVC021,0.00,VWS V14.01,2013-03-18 20:04:00,
2013-03-18 16:09:00,33.4,30.0,30.08,ESE,109,4.0,11.0,87,0.00,,OVC027,0.00,VWS V14.01,2013-03-18 20:09:00,
2013-03-18 16:14:00,33.2,30.0,30.08,ESE,117,7.0,12.0,88,0.00,,OVC027,0.00,VWS V14.01,2013-03-18 20:14:00,
2013-03-18 16:19:00,32.9,29.7,30.07,ESE,120,10.0,13.0,88,0.00,,OVC025,0.00,VWS V14.01,2013-03-18 20:19:00,
2013-03-18 16:24:00,32.9,30.0,30.07,East,92,12.0,12.0,89,0.00,,OVC025,0.00,VWS V14.01,2013-03-18 20:24:00,
2013-03-18 16:29:00,32.8,29.9,30.07,ESE,113,1.0,12.0,89,0.00,,OVC025,0.00,VWS V14.01,2013-03-18 20:29:00,
2013-03-18 16:35:00,32.7,29.8,30.07,East,93,9.0,12.0,89,0.00,,OVC025,0.00,VWS V14.01,2013-03-18 20:35:00,
2013-03-18 16:40:00,32.5,29.6,30.07,NE,34,7.0,15.0,89,0.00,,OVC017,0.00,VWS V14.01,2013-03-18 20:40:00,
2013-03-18 16:45:00,32.4,29.8,30.07,East,87,2.0,14.0,90,0.00,,OVC017,0.00,VWS V14.01,2013-03-18 20:45:00,
2013-03-18 16:50:00,32.4,29.8,30.06,ENE,59,4.0,10.0,90,0.00,,OVC017,0.00,VWS V14.01,2013-03-18 20:50:00,
2013-03-18 16:55:00,32.2,29.6,30.06,ESE,107,4.0,14.0,90,0.00,,OVC014,0.00,VWS V14.01,2013-03-18 20:55:00,
2013-03-18 17:00:00,32.1,29.5,30.06,ESE,105,5.0,12.0,90,0.00,,OVC014,0.00,VWS V14.01,2013-03-18 21:00:00,
2013-03-18 17:05:00,31.9,29.3,30.05,East,96,9.0,13.0,90,0.00,,OVC014,0.00,VWS V14.01,2013-03-18 21:05:00,
2013-03-18 17:10:00,31.9,29.3,30.05,ENE,72,5.0,10.0,90,0.00,,OVC014,0.00,VWS V14.01,2013-03-18 21:10:00,
2013-03-18 17:15:00,31.8,29.2,30.05,East,89,7.0,10.0,90,0.00,,OVC014,0.00,VWS V14.01,2013-03-18 21:15:00,
2013-03-18 17:20:00,31.8,29.2,30.05,ESE,107,3.0,11.0,90,0.00,,OVC014,0.00,VWS V14.01,2013-03-18 21:20:00,
2013-03-18 17:25:00,31.6,29.0,30.05,ESE,108,15.0,15.0,90,0.00,,OVC014,0.00,VWS V14.01,2013-03-18 21:25:00,
2013-03-18 17:30:00,31.6,29.0,30.05,East,86,5.0,10.0,90,0.00,,OVC014,0.00,VWS V14.01,2013-03-18 21:30:00,
2013-03-18 17:35:00,31.6,29.0,30.04,East,100,6.0,9.0,90,0.00,,OVC014,0.00,VWS V14.01,2013-03-18 21:35:00,
2013-03-18 17:40:00,31.5,28.9,30.04,ESE,103,9.0,14.0,90,0.00,,OVC014,0.00,VWS V14.01,2013-03-18 21:40:00,
2013-03-18 17:45:00,31.5,29.2,30.04,ESE,111,4.0,11.0,91,0.00,,OVC014,0.00,VWS V14.01,2013-03-18 21:45:00,
2013-03-18 17:50:00,31.3,29.0,30.00,ESE,105,12.0,12.0,91,0.00,,OVC014,0.00,VWS V14.01,2013-03-18 21:50:00,
2013-03-18 17:55:00,31.3,29.0,30.00,ENE,75,9.0,19.0,91,0.00,,OVC007,0.00,VWS V14.01,2013-03-18 21:55:00,
2013-03-18 18:00:00,31.3,29.0,30.00,ESE,107,5.0,10.0,91,0.00,,OVC007,0.00,VWS V14.01,2013-03-18 22:00:00,
2013-03-18 18:05:00,31.3,29.0,29.99,ESE,117,10.0,15.0,91,0.00,,OVC007,0.00,VWS V14.01,2013-03-18 22:05:00,
2013-03-18 18:10:00,31.3,29.2,29.99,ESE,107,10.0,16.0,92,0.00,,OVC007,0.00,VWS V14.01,2013-03-18 22:10:00,
2013-03-18 18:15:00,31.3,29.2,29.99,ESE,121,8.0,11.0,92,0.00,,OVC007,0.00,VWS V14.01,2013-03-18 22:15:00,
2013-03-18 18:20:00,31.5,29.5,30.00,East,86,9.0,11.0,92,0.00,,OVC007,0.00,VWS V14.01,2013-03-18 22:20:00,
2013-03-18 18:25:00,31.5,29.5,30.00,East,101,6.0,9.0,92,0.00,,OVC007,0.00,VWS V14.01,2013-03-18 22:25:00,
2013-03-18 18:30:00,31.6,29.5,30.00,NE,50,4.0,13.0,92,0.00,,OVC007,0.00,VWS V14.01,2013-03-18 22:30:00,
2013-03-18 18:35:00,31.6,29.8,29.99,ESE,106,4.0,10.0,93,0.00,,OVC007,0.00,VWS V14.01,2013-03-18 22:35:00,
2013-03-18 18:40:00,31.8,30.0,29.99,East,99,5.0,8.0,93,0.00,,OVC007,0.00,VWS V14.01,2013-03-18 22:40:00,
2013-03-18 18:45:00,31.8,30.0,29.99,ENE,78,0.0,6.0,93,0.00,,OVC007,0.00,VWS V14.01,2013-03-18 22:45:00,
2013-03-18 18:50:00,31.9,30.1,30.00,East,84,6.0,8.0,93,0.00,,OVC007,0.00,VWS V14.01,2013-03-18 22:50:00,
2013-03-18 18:55:00,31.9,30.1,30.00,ESE,105,5.0,10.0,93,0.00,,OVC009,0.00,VWS V14.01,2013-03-18 22:55:00,
2013-03-18 19:00:00,32.1,30.3,30.00,East,86,2.0,9.0,93,0.00,,OVC009,0.00,VWS V14.01,2013-03-18 23:00:00,
2013-03-18 19:05:00,32.1,30.3,30.00,ESE,112,8.0,8.0,93,0.00,,OVC009,0.00,VWS V14.01,2013-03-18 23:05:00,
2013-03-18 19:10:00,32.2,30.4,30.00,East,93,6.0,10.0,93,0.00,,OVC009,0.00,VWS V14.01,2013-03-18 23:10:00,
2013-03-18 19:15:00,32.2,30.4,30.00,ESE,120,6.0,9.0,93,0.00,,OVC009,0.00,VWS V14.01,2013-03-18 23:15:00,
2013-03-18 19:20:00,32.2,30.4,29.99,ESE,104,1.0,10.0,93,0.00,,OVC009,0.00,VWS V14.01,2013-03-18 23:20:00,
2013-03-18 19:25:00,32.4,30.6,29.99,ESE,103,10.0,14.0,93,0.00,,OVC009,0.00,VWS V14.01,2013-03-18 23:25:00,
2013-03-18 19:30:00,32.4,30.6,29.99,ESE,111,4.0,7.0,93,0.00,,OVC009,0.00,VWS V14.01,2013-03-18 23:30:00,
2013-03-18 19:35:00,32.4,30.6,29.99,ESE,102,3.0,10.0,93,0.00,,OVC009,0.00,VWS V14.01,2013-03-18 23:35:00,
2013-03-18 19:40:00,32.4,30.6,29.99,ESE,105,6.0,8.0,93,0.00,,OVC009,0.00,VWS V14.01,2013-03-18 23:40:00,
2013-03-18 19:45:00,32.4,30.6,29.99,ENE,76,5.0,9.0,93,0.00,,OVC009,0.00,VWS V14.01,2013-03-18 23:45:00,
2013-03-18 19:50:00,32.5,30.7,29.98,East,79,2.0,11.0,93,0.00,,OVC009,0.00,VWS V14.01,2013-03-18 23:50:00,
2013-03-18 19:55:00,32.5,30.7,29.98,East,87,2.0,7.0,93,0.00,,OVC006,0.00,VWS V14.01,2013-03-18 23:55:00,
2013-03-18 20:00:00,32.5,30.7,29.98,ENE,73,4.0,9.0,93,0.00,,OVC006,0.00,VWS V14.01,2013-03-19 00:00:00,
2013-03-18 20:05:00,32.5,30.7,29.97,East,91,6.0,7.0,93,0.00,,OVC006,0.00,VWS V14.01,2013-03-19 00:05:00,
2013-03-18 20:10:00,32.5,30.7,29.97,East,96,8.0,9.0,93,0.00,,OVC008,0.00,VWS V14.01,2013-03-19 00:10:00,
2013-03-18 20:15:00,32.5,31.0,29.97,NE,48,6.0,10.0,94,0.00,,OVC008,0.00,VWS V14.01,2013-03-19 00:15:00,
2013-03-18 20:20:00,32.7,31.2,29.96,ENE,73,4.0,11.0,94,0.00,,OVC008,0.00,VWS V14.01,2013-03-19 00:20:00,
2013-03-18 20:25:00,32.7,31.2,29.96,ESE,103,8.0,10.0,94,0.00,,OVC008,0.00,VWS V14.01,2013-03-19 00:25:00,
2013-03-18 20:30:00,32.7,31.2,29.96,ENE,65,12.0,13.0,94,0.00,,OVC008,0.00,VWS V14.01,2013-03-19 00:30:00,
2013-03-18 20:35:00,32.7,31.2,29.95,East,85,6.0,13.0,94,0.00,,OVC002,0.00,VWS V14.01,2013-03-19 00:35:00,
2013-03-18 20:40:00,32.7,31.2,29.95,East,101,8.0,11.0,94,0.00,,OVC002,0.00,VWS V14.01,2013-03-19 00:40:00,
2013-03-18 20:45:00,32.7,31.2,29.95,ENE,77,6.0,12.0,94,0.00,,OVC002,0.00,VWS V14.01,2013-03-19 00:45:00,
2013-03-18 20:50:00,32.7,31.2,29.94,ENE,67,4.0,11.0,94,0.00,,OVC002,0.00,VWS V14.01,2013-03-19 00:50:00,
2013-03-18 20:55:00,32.7,31.2,29.94,East,96,12.0,14.0,94,0.00,,OVC007,0.00,VWS V14.01,2013-03-19 00:55:00,
2013-03-18 21:00:00,32.7,31.2,29.94,ESE,104,5.0,12.0,94,0.00,,OVC007,0.00,VWS V14.01,2013-03-19 01:00:00,
2013-03-18 21:05:00,32.7,31.2,29.93,East,86,5.0,10.0,94,0.00,,OVC007,0.00,VWS V14.01,2013-03-19 01:05:00,
2013-03-18 21:10:00,32.7,31.2,29.93,NE,41,6.0,11.0,94,0.00,,OVC007,0.00,VWS V14.01,2013-03-19 01:10:00,
2013-03-18 21:15:00,32.7,31.2,29.93,SE,129,6.0,10.0,94,0.00,,OVC007,0.00,VWS V14.01,2013-03-19 01:15:00,
2013-03-18 21:20:00,32.7,31.2,29.93,ENE,69,4.0,13.0,94,0.00,,OVC007,0.00,VWS V14.01,2013-03-19 01:20:00,
2013-03-18 21:25:00,32.7,31.4,29.93,ENE,78,5.0,10.0,95,0.00,,OVC007,0.00,VWS V14.01,2013-03-19 01:25:00,
2013-03-18 21:30:00,32.7,31.2,29.93,ENE,69,4.0,9.0,94,0.00,,OVC007,0.00,VWS V14.01,2013-03-19 01:30:00,
2013-03-18 21:35:00,32.8,31.3,29.94,NE,49,4.0,7.0,94,0.00,,OVC011,0.00,VWS V14.01,2013-03-19 01:35:00,
2013-03-18 21:40:00,32.8,31.3,29.94,ESE,103,1.0,10.0,94,0.00,,OVC011,0.00,VWS V14.01,2013-03-19 01:40:00,
2013-03-18 21:45:00,32.8,31.3,29.94,ENE,58,2.0,9.0,94,0.00,,OVC011,0.00,VWS V14.01,2013-03-19 01:45:00,
2013-03-18 21:50:00,32.8,31.3,29.93,East,93,3.0,7.0,94,0.00,,OVC011,0.00,VWS V14.01,2013-03-19 01:50:00,
2013-03-18 21:55:00,32.8,31.3,29.93,NE,49,2.0,13.0,94,0.00,,OVC008,0.00,VWS V14.01,2013-03-19 01:55:00,
2013-03-18 22:00:00,32.8,31.3,29.93,East,94,5.0,7.0,94,0.00,,OVC008,0.00,VWS V14.01,2013-03-19 02:00:00,
2013-03-18 22:05:00,32.9,31.4,29.93,ENE,66,3.0,10.0,94,0.00,,OVC008,0.00,VWS V14.01,2013-03-19 02:05:00,
2013-03-18 22:10:00,32.9,31.4,29.93,ENE,77,6.0,8.0,94,0.00,,OVC008,0.00,VWS V14.01,2013-03-19 02:10:00,
2013-03-18 22:15:00,32.9,31.4,29.93,NE,49,4.0,9.0,94,0.00,,OVC008,0.00,VWS V14.01,2013-03-19 02:15:00,
2013-03-18 22:20:00,32.9,31.4,29.92,ENE,72,4.0,8.0,94,0.00,,OVC008,0.00,VWS V14.01,2013-03-19 02:20:00,
2013-03-18 22:25:00,32.9,31.4,29.92,ENE,73,6.0,8.0,94,0.00,,OVC008,0.00,VWS V14.01,2013-03-19 02:25:00,
2013-03-18 22:30:00,33.1,31.8,29.92,ESE,108,5.0,13.0,95,0.00,,OVC008,0.00,VWS V14.01,2013-03-19 02:30:00,
2013-03-18 22:35:00,33.1,31.8,29.91,SE,124,6.0,7.0,95,0.00,,OVC008,0.00,VWS V14.01,2013-03-19 02:35:00,
2013-03-18 22:40:00,33.2,31.9,29.91,ENE,70,4.0,9.0,95,0.00,,OVC008,0.00,VWS V14.01,2013-03-19 02:40:00,
2013-03-18 22:45:00,33.2,31.9,29.91,ENE,75,2.0,9.0,95,0.00,,OVC008,0.00,VWS V14.01,2013-03-19 02:45:00,
2013-03-18 22:50:00,33.2,31.9,29.90,ENE,63,4.0,8.0,95,0.00,,OVC008,0.00,VWS V14.01,2013-03-19 02:50:00,
2013-03-18 22:55:00,33.4,32.1,29.90,East,79,3.0,10.0,95,0.00,,,0.00,VWS V14.01,2013-03-19 02:55:00,
2013-03-18 23:00:00,33.5,32.2,29.90,East,100,11.0,11.0,95,0.00,,,0.00,VWS V14.01,2013-03-19 03:00:00,
2013-03-18 23:05:00,33.5,32.2,29.87,NE,52,8.0,14.0,95,0.00,,,0.00,VWS V14.01,2013-03-19 03:05:00,
2013-03-18 23:10:00,33.7,32.4,29.87,ESE,104,8.0,10.0,95,0.00,,,0.00,VWS V14.01,2013-03-19 03:10:00,
2013-03-18 23:15:00,33.7,32.4,29.87,ENE,62,10.0,11.0,95,0.00,,,0.00,VWS V14.01,2013-03-19 03:15:00,
2013-03-18 23:20:00,33.8,32.5,29.85,SE,139,5.0,11.0,95,0.00,,,0.00,VWS V14.01,2013-03-19 03:20:00,
2013-03-18 23:25:00,34.0,32.7,29.85,SE,134,4.0,9.0,95,0.00,,,0.00,VWS V14.01,2013-03-19 03:25:00,
2013-03-18 23:30:00,34.0,32.7,29.85,East,83,12.0,12.0,95,0.00,,,0.00,VWS V14.01,2013-03-19 03:30:00,
2013-03-18 23:35:00,34.1,32.8,29.83,ESE,113,12.0,14.0,95,0.00,,OVC006,0.00,VWS V14.01,2013-03-19 03:35:00,
2013-03-18 23:40:00,34.1,32.8,29.83,East,90,3.0,16.0,95,0.00,,OVC006,0.00,VWS V14.01,2013-03-19 03:40:00,
2013-03-18 23:45:00,34.3,33.0,29.83,ESE,120,5.0,9.0,95,0.00,,OVC006,0.00,VWS V14.01,2013-03-19 03:45:00,
2013-03-18 23:50:00,34.3,33.0,29.84,ENE,68,4.0,10.0,95,0.00,,OVC006,0.00,VWS V14.01,2013-03-19 03:50:00,
2013-03-18 23:55:00,34.4,33.1,29.84,ENE,72,7.0,10.0,95,0.00,,OVC006,0.00,VWS V14.01,2013-03-19 03:55:00,